{"data":{"norad_id":48119,"intl_designator":"2021-027AD","name":"STARLINK-2459","alt_names":[],"object_type":"PAYLOAD","status":"ACTIVE","operator":null,"country":"US","launch_date":"2021-04-07","launch_site_code":"AFETR","launch_vehicle":null,"mission":null,"orbit_class":"UNKNOWN","rcs_meters":null,"size_class":null,"mass_kg":null,"dimensions":null,"purposes":["comms"],"wikipedia_slug":null,"has_3d_model":false,"image_url":null,"decayed_at":null,"tle_current":{"epoch":"2026-09-19T18:24:54.289728Z","epoch_age_seconds":92531,"freshness":"FRESH","line1":"1 48119U 21027AD  26262.76729502 -.00001362  00000+0 -32128-4 0  9994","line2":"2 48119  53.1613 329.2174 0001613  53.9042 306.2109 15.31698748302419","mean_motion":15.31698748,"eccentricity":0.0001613,"inclination_deg":53.1613,"raan_deg":329.2174,"arg_perigee_deg":53.9042,"mean_anomaly_deg":306.2109,"bstar":-3.2128e-5,"rev_number":30241,"period_min":94.013264806821,"perigee_km":469.63900291372,"apogee_km":471.84845183637,"semimajor_km":6848.880727375,"source":"CELESTRAK","updated_at":"2026-09-20T09:00:38.765037Z"}}}